DW9636 Weather Reports


Display with metric or nautical units.
time (UTC)temp
F
wind
direction
speed
MPH
gust
MPH
rain 1hr
in
rain 24hr
in
rain mn
in
humidity
%
barometer
mb
20260831053055 55 5 0.0 0.0 0.00 0.00 0.00 35 1014.1
20260831051554 55 5 0.0 0.0 0.00 0.00 0.00 37 1014.3
20260831050054 54 5 0.0 0.0 0.00 0.00 0.00 37 1014.3
20260831044556 54 5 0.0 0.0 0.00 0.00 0.00 35 1014.3
20260831043058 55 5 0.0 0.0 0.00 0.00 0.00 33 1014.4
20260831041615 57 5 0.0 0.0 0.00 0.00 0.00 31 1014.2
20260831040053 60 5 0.0 0.0 0.00 0.00 0.00 29 1014.1
20260831034552 63 5 0.0 0.0 0.00 0.00 0.00 27 1013.8
20260831033054 65 5 0.0 0.0 0.00 0.00 0.00 26 1013.6
20260831031600 66 5 0.0 0.0 0.00 0.00 0.00 25 1013.4
20260831030059 66 5 0.0 0.0 0.00 0.00 0.00 25 1013.4
20260831024554 68 5 0.0 0.0 0.00 0.00 0.00 24 1013.3
20260831023050 70 5 0.0 0.0 0.00 0.00 0.00 22 1013.1
20260831021553 71 5 0.0 0.0 0.00 0.00 0.00 21 1013.1
20260831020049 72 355 0.0 0.0 0.00 0.00 0.00 20 1013.1
20260831014548 73 17 0.0 0.0 0.00 0.00 0.00 19 1013.1
20260831013047 74 346 0.0 0.0 0.00 0.00 0.00 12 1013.3
20260831011553 75 346 0.0 0.0 0.00 0.00 0.00 12 1013.3
20260831010044 75 351 0.0 0.0 0.00 0.00 0.00 11 1013.5
20260831004545 75 351 0.0 0.0 0.00 0.00 0.00 11 1013.7
20260831003047 76 339 0.0 0.0 0.00 0.00 0.00 11 1013.8
20260831001541 76 298 0.0 0.0 0.00 0.00 0.00 11 1013.8
20260831000055 76 250 0.0 0.0 0.00 0.00 0.00 11 1013.9
20260830234545 76 9 0.0 0.0 0.00 0.00 0.00 10 1014.0
20260830233037 76 60 0.0 0.0 0.00 0.00 0.00 12 1014.2
20260830231534 77 343 0.0 0.0 0.00 0.00 0.00 11 1014.5
20260830230034 77 121 0.0 0.0 0.00 0.00 0.00 11 1014.7
20260830224530 77 273 0.0 0.0 0.00 0.00 0.00 13 1014.8
20260830223029 78 245 1.0 0.0 0.00 0.00 0.00 12 1015.0
20260830221531 78 295 0.0 0.0 0.00 0.00 0.00 12 1015.2
20260830220027 78 271 0.0 0.0 0.00 0.00 0.00 13 1015.4
20260830214525 78 192 0.0 0.0 0.00 0.00 0.00 12 1015.6
20260830213024 77 148 0.0 0.0 0.00 0.00 0.00 14 1015.8
20260830211517 75 119 0.0 0.0 0.00 0.00 0.00 15 1015.9
20260830210014 74 229 0.0 0.0 0.00 0.00 0.00 16 1016.3
20260830204519 73 337 0.0 0.0 0.00 0.00 0.00 15 1016.3
20260830203010 72 41 0.0 0.0 0.00 0.00 0.00 16 1016.6
20260830201507 72 267 0.0 0.0 0.00 0.00 0.00 17 1016.8
20260830200003 70 137 0.0 0.0 0.00 0.00 0.00 21 1016.8
20260830194611 69 304 0.0 0.0 0.00 0.00 0.00 23 1016.9
20260830193108 67 190 0.0 0.0 0.00 0.00 0.00 27 1017.0
20260830191559 66 209 0.0 0.0 0.00 0.00 0.00 30 1017.2
20260830190050 63 195 0.0 0.0 0.00 0.00 0.00 33 1017.4
20260830184546 61 215 0.0 0.0 0.00 0.00 0.00 38 1017.5
20260830183042 60 261 0.0 0.0 0.00 0.00 0.00 42 1017.7
20260830181539 58 170 0.0 0.0 0.00 0.00 0.00 47 1017.9
20260830180048 57 274 0.0 0.0 0.00 0.00 0.00 48 1018.0
20260830174531 55 277 0.0 0.0 0.00 0.00 0.00 55 1018.2
20260830173027 53 275 0.0 0.0 0.00 0.00 0.00 59 1018.2
20260830171523 51 275 0.0 0.0 0.00 0.00 0.00 66 1018.3
20260830170017 48 275 0.0 0.0 0.00 0.00 0.00 71 1018.4
20260830164536 46 276 0.0 0.0 0.00 0.00 0.00 75 1018.6
20260830163010 44 316 0.0 0.0 0.00 0.00 0.00 80 1018.7
20260830161504 41 317 0.0 0.0 0.00 0.00 0.00 85 1018.9
20260830160000 38 316 0.0 0.0 0.00 0.00 0.00 89 1019.0
20260830154604 36 316 0.0 0.0 0.00 0.00 0.00 91 1019.1
20260830153108 33 316 0.0 0.0 0.00 0.00 0.00 91 1019.2
20260830151558 31 316 0.0 0.0 0.00 0.00 0.00 91 1019.3
20260830150100 29 316 0.0 0.0 0.00 0.00 0.00 91 1019.2
20260830144556 28 316 0.0 0.0 0.00 0.00 0.00 91 1019.2
20260830143054 27 316 0.0 0.0 0.00 0.00 0.00 89 1019.2
20260830141553 26 316 0.0 0.0 0.00 0.00 0.00 89 1019.1
20260830140053 26 316 0.0 0.0 0.00 0.00 0.00 88 1019.0
20260830134548 26 316 0.0 0.0 0.00 0.00 0.00 87 1018.6
20260830133046 26 316 0.0 0.0 0.00 0.00 0.00 87 1018.6
20260830131546 26 316 0.0 0.0 0.00 0.00 0.00 87 1018.5
20260830130043 26 316 0.0 0.0 0.00 0.00 0.00 87 1018.3
20260830124540 26 316 0.0 0.0 0.00 0.00 0.00 87 1018.3
20260830123042 27 316 0.0 0.0 0.00 0.00 0.00 88 1018.1
20260830121537 27 316 0.0 0.0 0.00 0.00 0.00 87 1018.1
20260830120039 27 316 0.0 0.0 0.00 0.00 0.00 88 1018.1
20260830114535 27 316 0.0 0.0 0.00 0.00 0.00 88 1018.1
20260830113032 27 316 0.0 0.0 0.00 0.00 0.00 87 1018.0
20260830111530 28 316 0.0 0.0 0.00 0.00 0.00 87 1017.9
20260830110028 28 316 0.0 0.0 0.00 0.00 0.00 87 1017.8
20260830104529 29 316 0.0 0.0 0.00 0.00 0.00 86 1017.7
20260830103027 29 316 0.0 0.0 0.00 0.00 0.00 85 1017.6
20260830101521 29 316 0.0 0.0 0.00 0.00 0.00 84 1017.4
20260830100019 29 316 0.0 0.0 0.00 0.00 0.00 84 1017.3
20260830094517 30 316 0.0 0.0 0.00 0.00 0.00 84 1017.2
20260830093015 30 316 0.0 0.0 0.00 0.00 0.00 84 1017.0
20260830091512 31 316 0.0 0.0 0.00 0.00 0.00 83 1016.9
20260830090007 32 316 0.0 0.0 0.00 0.00 0.00 82 1016.9
20260830084505 33 316 0.0 0.0 0.00 0.00 0.00 82 1016.9
20260830083001 33 316 0.0 0.0 0.00 0.00 0.00 81 1016.7
20260830081559 34 316 0.0 0.0 0.00 0.00 0.00 81 1016.7
20260830080055 35 316 0.0 0.0 0.00 0.00 0.00 80 1016.5
20260830074551 35 316 0.0 0.0 0.00 0.00 0.00 79 1016.3
20260830073052 36 316 0.0 0.0 0.00 0.00 0.00 80 1016.3
20260830071547 37 316 0.0 0.0 0.00 0.00 0.00 79 1016.3
20260830070044 38 316 0.0 0.0 0.00 0.00 0.00 78 1016.2
20260830064543 39 316 0.0 0.0 0.00 0.00 0.00 75 1016.2
20260830063044 40 316 0.0 0.0 0.00 0.00 0.00 74 1016.1
20260830061542 41 316 0.0 0.0 0.00 0.00 0.00 72 1016.0
20260830060042 42 316 0.0 0.0 0.00 0.00 0.00 72 1016.0
20260830054540 43 316 0.0 0.0 0.00 0.00 0.00 71 1016.1